Tracking 25949 objects as of 8-Aug-2022
HD Live streaming from Space Station
objects crossing your sky now

COSMOS 1275 DEB

Track COSMOS 1275 DEB now!
10-day predictions


NORAD ID: 14627
Int'l Code: 1981-053JT
Perigee: 870.3 km
Apogee: 930.3 km
Inclination: 82.8 °
Period: 102.8 minutes
Semi major axis: 7271 km
RCS: 0.0099 m2 (small)
Launch date: June 4, 1981
Source: Commonwealth of Independent States (former USSR) (CIS)
Launch site: PLESETSK MISSILE AND SPACE COMPLEX (PKMTR)

Note: This is SATELLITE DEBRIS
aabbcc
Your satellite tracking list
Your tracking list is empty




NASA's NSSDC Master Catalog

Two Line Element Set (TLE):
1 14627U 81053JQ  22220.57989698  .00000933  00000-0  61730-3 0  9991
2 14627  82.7817  85.8377 0041267 149.6452 237.5653 14.00195687963857
Source of the keplerian elements: AFSPC